WZZ9925 LIMF-LOWW

Flight info

Callsign WZZ9925
Flight time N/A
Altitude 36000
Route MMP1Z/36 MMP DCT SRN DCT PEXUG DCT OSKOR DCT NESTI DCT ARALD DCT ABTAN ABTAN2W
Aircraft A20N/L-V/N

Departure

Time 2026-05-03 20:17
Airport Turin Airport (LIMF)

Arrival

Time N/A
Airport Vienna International Airport (LOWW)
Time Latitude Longitude Altitude Speed Heading
2026-05-03 20:15 45.18980 7.64704 990 ft 14 kts 112°
2026-05-03 20:15 45.18972 7.64736 991 ft 8 kts 108°
2026-05-03 20:15 45.18987 7.64870 990 ft 17 kts 40°
2026-05-03 20:15 45.19025 7.64897 986 ft 10 kts 13°
2026-05-03 20:16 45.19032 7.64897 982 ft 0 kts
2026-05-03 20:16 45.19133 7.64905 984 ft 47 kts
2026-05-03 20:17 45.19689 7.64937 980 ft 110 kts
2026-05-03 20:17 45.20617 7.64994 988 ft 154 kts
2026-05-03 20:17 45.21725 7.65059 1339 ft 164 kts
2026-05-03 20:17 45.22917 7.65135 1714 ft 178 kts
2026-05-03 20:18 45.24168 7.65217 2127 ft 190 kts
2026-05-03 20:18 45.25540 7.65298 2550 ft 201 kts
2026-05-03 20:18 45.26935 7.65855 2802 ft 221 kts 33°
2026-05-03 20:18 45.27981 7.67563 3124 ft 243 kts 66°
2026-05-03 20:19 45.28279 7.70000 3585 ft 263 kts 96°
2026-05-03 20:19 45.27696 7.72474 4450 ft 268 kts 117°
2026-05-03 20:19 45.24504 7.81192 8335 ft 275 kts 124°
2026-05-03 20:19 45.22212 7.85714 10379 ft 281 kts 128°
2026-05-03 20:20 45.21071 7.88007 11217 ft 287 kts 128°
2026-05-03 20:20 45.19903 7.90359 12072 ft 293 kts 128°
2026-05-03 20:20 45.18716 7.92740 12924 ft 299 kts 128°
2026-05-03 20:20 45.17489 7.95162 13770 ft 304 kts 133°
2026-05-03 20:21 45.15874 7.97044 14511 ft 301 kts 157°
2026-05-03 20:21 45.13901 7.97794 15274 ft 298 kts 181°
2026-05-03 20:21 45.11878 7.97317 16021 ft 297 kts 202°
2026-05-03 20:21 45.09956 7.96196 16796 ft 300 kts 204°
2026-05-03 20:22 45.08205 7.94686 17537 ft 302 kts 223°
2026-05-03 20:22 45.06679 7.86691 19541 ft 321 kts 285°
2026-05-03 20:22 45.09158 7.77310 21618 ft 328 kts 279°
2026-05-03 20:22 45.09564 7.74127 22267 ft 330 kts 277°
2026-05-03 20:23 45.09952 7.70905 22918 ft 332 kts 277°
2026-05-03 20:23 45.10217 7.68755 23341 ft 334 kts 277°
2026-05-03 20:23 45.10764 7.64358 24017 ft 342 kts 277°
2026-05-03 20:23 45.11178 7.61037 24584 ft 343 kts 277°
2026-05-03 20:24 45.11587 7.57747 25105 ft 345 kts 277°
2026-05-03 20:24 45.12002 7.54388 25609 ft 347 kts 277°
2026-05-03 20:24 45.12420 7.51007 26121 ft 350 kts 277°
2026-05-03 20:24 45.12831 7.47684 26388 ft 333 kts 277°
2026-05-03 20:25 45.13226 7.44560 26386 ft 308 kts 277°
2026-05-03 20:25 45.13602 7.41788 26541 ft 265 kts 277°
2026-05-03 20:25 45.13951 7.39398 26607 ft 231 kts 278°
2026-05-03 20:25 45.14286 7.37310 26567 ft 206 kts 278°
2026-05-03 20:26 45.14492 7.35418 26273 ft 184 kts 259°
2026-05-03 20:26 45.13986 7.33343 25667 ft 226 kts 227°
2026-05-03 20:26 45.13640 7.31558 19615 ft 265 kts 234°